DELTA 1 DEB, 7161

Orbit data source: Space-Track

DELTA 1 DEB, 7161 is space debris in SSO originally from a launch on Tue, 06 Nov 1973 UTC launched from the Air Force Western Test Range (AFWTR). Debris objects in space refer to the collection of defunct objects orbiting the Earth. Examples of debris include non-operational satellites, rocket bodies, and fragments generated from explosions, collisions, or faulty payload assembly.

Loading next visibility...
Identifier
7161, 1973-086DZ
Orbit
SSO
Country
Flag of USUS
Related business
Manufacturer
Unknown
Mission
Spacecraft
Bus & Motor
Unknown
Mass
Unknown
Launch date (UTC)
1973-11-06 (52 years ago)
Launch vehicle
Unknown
Launch site
Air Force Western Test Range (AFWTR)
Object type
Payload
Rocket body
Debris
Shape & HBR
Unknown shape, 0.2 m
Radar Cross Section
Small (<0.1 m²)

Expand to show TLE details & history
Last TLE update: 7 hours ago

TLE from 7 hours ago
0 DELTA 1 DEB
1 07161U 73086DZ  25293.59027604  .00000011  00000-0  42207-3 0  9993
2 07161 102.2356 316.3187 0014740 204.0424 281.5612 12.41242421353062
Epoch: 2025-10-20T14:09Z
TLE epoch observation values (Epoch: 2025-10-20T14:09:59.849Z)
Latitude
52.8667°
Longitude
-88.9127°
Altitude
1,507.409 km
Speed
7.117 km/s
True Right ascension
10h 11m 30s
True Declination
52° 43' 01"
Sunlit
Object was in daylight at epoch
Visualization orbit readout
Latitude
Unknown
Longitude
Unknown
Altitude
Unknown
Speed
Unknown
Apparent Right ascension
Unknown
Apparent Declination
Unknown
Sunlit
N/A
Visualization observer readout
Local Sidereal Time
16:12:08
Azimuth
Unknown
Elevation
Unknown
Doppler factor
Unknown
Orbital elements
Apogee altitude
1,510.539 km
Perigee altitude
1,487.317 km
Semi-major axis
7,877.065 km
Eccentricity
0.00147
Inclination
102.2356°
RAAN
316.3187°
Arg. of periapsis
204.0424°
True anomaly
281.39566°
Mean anomaly
281.5612°
Eccentric anomaly
281.47844°
Mean motion
3.10453 °/min
Orbital period
115.96 mins
BSTAR
0.00042207
Loading maneuver chart data...
Computing Atmospheric mass density...

Documentation

Showing up to 5 results
|